EW3148 Weather Reports


time (UTC)temp
C
wind
direction
speed
KPH
gust
KPH
rain 1hr
cm
rain 24hr
cm
rain mn
cm
humidity
%
barometer
mb
20260510115643 20 186 3.2 8.0 0.00 0.00 0.00 91 1008.9
20260510114635 20 181 1.6 8.0 0.00 0.00 0.00 91 1008.8
20260510113611 20 223 1.6 11.3 0.00 0.03 0.00 91 1008.7
20260510111511 20 173 1.6 9.7 0.00 0.03 0.00 91 1008.8
20260510110515 20 215 1.6 12.9 0.00 0.03 0.00 91 1008.6
20260510105527 20 204 3.2 12.9 0.00 0.05 0.00 91 1008.5
20260510104522 20 193 4.8 16.1 0.00 0.05 0.00 91 1008.3
20260510103539 20 178 4.8 16.1 0.00 0.05 0.00 91 1008.3
20260510102518 20 237 3.2 12.9 0.00 0.05 0.00 91 1008.3
20260510100353 20 177 4.8 12.9 0.00 0.05 0.00 90 1008.3
20260510094257 21 190 4.8 16.1 0.00 0.05 0.00 89 1008.3
20260510092227 21 192 4.8 16.1 0.00 0.05 0.00 89 1008.3
20260510091153 21 207 4.8 12.9 0.00 0.05 0.00 88 1008.2
20260510090139 21 188 4.8 17.7 0.00 0.08 0.00 88 1008.2
20260510085132 21 176 6.4 17.7 0.00 0.08 0.00 87 1008.3
20260510084109 21 185 4.8 11.3 0.00 0.08 0.00 87 1008.3
20260510083132 21 190 4.8 11.3 0.00 0.08 0.00 87 1008.4
20260510082100 21 190 6.4 11.3 0.00 0.08 0.00 86 1008.4
20260510081124 22 213 6.4 12.9 0.00 0.08 0.00 86 1008.4
20260510080114 22 186 4.8 12.9 0.00 0.08 0.00 85 1008.5
20260510075117 22 171 4.8 12.9 0.00 0.08 0.00 85 1008.5
20260510072956 22 149 4.8 11.3 0.00 0.08 0.00 84 1008.6
20260510071940 22 206 4.8 12.9 0.00 0.08 0.00 83 1008.7
20260510070951 22 166 4.8 12.9 0.00 0.08 0.00 83 1008.5
20260510065958 22 164 4.8 12.9 0.00 0.08 0.00 82 1008.5
20260510065015 22 176 4.8 12.9 0.00 0.08 0.00 82 1008.5
20260510063943 23 188 4.8 12.9 0.00 0.08 0.00 82 1008.4
20260510062908 23 169 4.8 14.5 0.00 0.08 0.00 81 1008.4
20260510061843 23 161 4.8 14.5 0.00 0.08 0.00 81 1008.4
20260510055758 23 202 4.8 11.3 0.00 0.08 0.00 80 1008.3
20260510054806 23 161 4.8 14.5 0.00 0.08 0.00 79 1008.3
20260510053754 23 156 4.8 14.5 0.00 0.08 0.00 79 1008.4
20260510052757 24 139 4.8 12.9 0.00 0.08 0.00 79 1008.4
20260510051741 24 166 4.8 12.9 0.00 0.08 0.00 79 1008.4
20260510050723 24 151 3.2 12.9 0.00 0.08 0.00 79 1008.3
20260510045652 24 157 3.2 11.3 0.00 0.08 0.08 79 1008.2
20260510043608 25 163 3.2 8.0 0.00 0.08 0.08 79 1008.2
20260510042617 25 123 3.2 8.0 0.00 0.08 0.08 79 1008.2
20260510041550 25 190 3.2 8.0 0.00 0.08 0.08 78 1008.3
20260510035422 25 173 3.2 8.0 0.00 0.08 0.08 78 1008.1
20260510034418 25 165 3.2 8.0 0.00 0.08 0.08 78 1008.0
20260510033421 25 159 3.2 8.0 0.00 0.08 0.08 78 1007.9
20260510032349 25 164 3.2 8.0 0.00 0.08 0.08 79 1007.9
20260510030226 25 157 1.6 6.4 0.00 0.08 0.08 79 1007.7
20260510025233 25 161 3.2 9.7 0.00 0.08 0.08 78 1007.5
20260510024202 26 173 4.8 12.9 0.00 0.08 0.08 77 1007.2
20260510023226 26 163 3.2 12.9 0.00 0.08 0.08 77 1007.1
20260510022234 26 153 1.6 11.3 0.00 0.08 0.08 75 1007.1
20260510021229 26 91 3.2 11.3 0.00 0.08 0.08 74 1007.1
20260510020209 26 157 1.6 8.0 0.00 0.08 0.08 72 1006.9
20260510015155 26 162 1.6 6.4 0.00 0.08 0.08 69 1006.8
20260510013014 27 144 1.6 6.4 0.00 0.08 0.08 63 1006.6
20260510012018 27 146 1.6 6.4 0.00 0.08 0.08 61 1006.6
20260510011037 27 129 1.6 8.0 0.00 0.08 0.08 59 1006.5
20260510010005 28 121 1.6 8.0 0.00 0.08 0.08 57 1006.4
20260510005023 28 179 3.2 9.7 0.00 0.08 0.08 57 1006.3
20260510003950 28 157 3.2 11.3 0.00 0.08 0.08 55 1006.3
20260510003005 28 125 3.2 14.5 0.00 0.08 0.08 53 1006.2
20260510002015 29 128 3.2 14.5 0.00 0.08 0.08 51 1006.1
20260510000943 30 124 3.2 12.9 0.00 0.08 0.08 49 1006.0
20260509235939 30 140 4.8 12.9 0.00 0.08 0.08 49 1006.0
20260509233834 30 129 4.8 16.1 0.00 0.08 0.08 47 1005.7
20260509232829 30 107 4.8 16.1 0.00 0.08 0.08 47 1005.7
20260509231815 31 101 8.0 16.1 0.00 0.08 0.08 48 1005.6
20260509230829 31 148 3.2 14.5 0.00 0.08 0.08 49 1005.6
20260509225813 32 123 3.2 12.9 0.00 0.08 0.08 51 1005.5
20260509224821 32 98 3.2 12.9 0.00 0.08 0.08 52 1005.5
20260509223845 32 79 1.6 9.7 0.00 0.08 0.08 52 1005.6
20260509221716 32 36 1.6 11.3 0.00 0.08 0.08 54 1005.5
20260509220648 31 117 1.6 9.7 0.00 0.08 0.08 55 1005.5
20260509215654 31 126 3.2 11.3 0.00 0.08 0.08 55 1005.5
20260509214712 30 136 3.2 11.3 0.00 0.08 0.08 56 1005.6
20260509213731 29 150 3.2 9.7 0.00 0.08 0.08 57 1005.8
20260509212732 28 144 6.4 22.5 0.00 0.08 0.08 57 1006.0
20260509210547 27 148 11.3 27.4 0.00 0.08 0.08 56 1006.4
20260509205551 30 119 8.0 27.4 0.00 0.08 0.08 47 1006.4
20260509204610 33 93 1.6 14.5 0.00 0.08 0.08 47 1006.5
20260509202444 33 294 4.8 14.5 0.00 0.08 0.08 49 1006.4
20260509201439 33 260 4.8 11.3 0.00 0.08 0.08 48 1006.6
20260509200411 33 269 1.6 9.7 0.00 0.08 0.08 50 1006.7
20260509195409 33 340 3.2 12.9 0.00 0.08 0.08 51 1006.7
20260509194336 33 246 3.2 16.1 0.00 0.08 0.08 50 1006.7
20260509193328 33 232 3.2 16.1 0.00 0.08 0.08 51 1007.0
20260509192322 32 257 4.8 12.9 0.00 0.08 0.08 53 1007.1
20260509191341 32 300 4.8 17.7 0.00 0.08 0.08 56 1007.1
20260509190316 32 17 1.6 17.7 0.00 0.08 0.08 54 1007.2
20260509185335 32 202 3.2 14.5 0.00 0.08 0.08 56 1007.5
20260509184310 31 187 3.2 16.1 0.00 0.08 0.08 57 1007.6
20260509183235 31 250 4.8 16.1 0.00 0.08 0.08 60 1007.9
20260509182218 31 173 1.6 12.9 0.00 0.08 0.08 59 1008.0
20260509181149 30 234 1.6 11.3 0.00 0.08 0.08 64 1008.1
20260509180137 31 267 1.6 11.3 0.00 0.08 0.08 63 1008.1
20260509175201 31 273 0.0 4.8 0.00 0.08 0.08 63 1008.3
20260509174207 30 348 1.6 8.0 0.00 0.08 0.08 65 1008.6
20260509173136 30 223 1.6 14.5 0.00 0.08 0.08 66 1008.6
20260509172134 30 197 3.2 14.5 0.00 0.08 0.08 68 1008.8
20260509171135 29 239 3.2 8.0 0.00 0.08 0.08 69 1008.7
20260509170114 29 238 1.6 9.7 0.00 0.08 0.08 71 1008.8
20260509162855 27 216 4.8 14.5 0.00 0.08 0.08 77 1008.9
20260509160749 26 273 3.2 12.9 0.00 0.08 0.08 83 1008.7
20260509155721 26 186 3.2 12.9 0.00 0.08 0.08 85 1008.9
20260509154703 25 242 1.6 9.7 0.00 0.08 0.08 90 1008.9
20260509153644 25 250 1.6 9.7 0.00 0.08 0.08 93 1009.0
20260509152634 23 242 4.8 14.5 0.00 0.08 0.08 94 1009.2
20260509151620 23 191 6.4 14.5 0.00 0.08 0.08 95 1009.2
20260509145453 22 159 4.8 14.5 0.00 0.08 0.08 95 1009.0
20260509144506 22 203 4.8 14.5 0.00 0.08 0.08 96 1008.7
20260509143510 22 195 1.6 12.9 0.00 0.08 0.08 96 1008.7
20260509142535 22 159 3.2 12.9 0.00 0.08 0.08 96 1008.4
20260509141535 22 189 4.8 14.5 0.00 0.08 0.08 96 1008.3
20260509140530 22 168 4.8 14.5 0.00 0.08 0.08 96 1008.2
20260509135509 22 168 0.0 4.8 0.00 0.08 0.08 96 1008.5
20260509134452 22 5 0.0 0.0 0.00 0.08 0.08 96 1008.6
20260509133504 22 5 0.0 3.2 0.00 0.08 0.08 96 1008.9
20260509132436 22 340 1.6 4.8 0.00 0.08 0.08 96 1009.0
20260509131459 22 19 0.0 8.0 0.00 0.08 0.08 96 1009.0
20260509130506 22 346 1.6 8.0 0.00 0.08 0.08 96 1008.6
20260509125444 22 308 1.6 6.4 0.00 0.08 0.08 96 1008.3
20260509124440 22 5 0.0 6.4 0.00 0.08 0.08 96 1008.4
20260509123413 22 5 0.0 1.6 0.00 0.08 0.08 96 1008.4
20260509121243 22 346 0.0 0.0 0.00 0.08 0.08 95 1008.5